Showing default

YAOGAN 20B, 40110

Orbit data source: Space-Track

YAOGAN 20B, 40110 is a payload satellite owned by PLA GAD (CN) in LEO that was launched on Sat, 09 Aug 2014 UTC via a CHANG ZHENG 4C launch vehicle from the Jiuquan Satellite Launch Center, China (JSC). Payloads include a variety of satellites, spacecraft, and rockets equipped with specific instruments for various scientific and technological missions. These include communications satellites like Starlink; space stations such as the ISS; scientific satellites like the Hubble; Earth observation satellites from companies like Planet Labs, Umbra, and HawkEye 360; GPS; miniature CubeSats for education and research; and military/defense satellites.

Loading next visibility...
YAOGAN 20B details
Identifier
40110, 2014-047B
Orbit
LEO
Last TLE update13 hours ago
Origin
Flag of CNPLA GAD (CN / PRC)
ManufacturerCAST
MissionOperational Defense Sigint
Bus & MotorUnknown
Mass~500 kg wet, ~500 kg dry
Launch date (UTC)
2014-08-09 (10 years ago)
Launch vehicle
CHANG ZHENG 4C
Launch site
Jiuquan Satellite Launch Center, China (JSC)
Object type
Payload
Rocket body
Debris
Shape & HBRBox + 2 Pan, 1 m
Radar Cross Section0.446 m², Large (>1 m²)

Expand to show TLE details & history

TLE from 13 hours ago
0 YAOGAN 20B
1 40110U 14047B   24361.23433099  .00000141  00000-0  27459-3 0  9997
2 40110  63.3851 326.3398 0342753  11.9694 348.9222 13.45355076509904
Epoch: 2024-12-26T05:37Z
Definitive object data (Epoch: 2024-12-26T05:37:26.197Z)
Latitude-0.00003°
Longitude146.76398°
Altitude840.298 km
Speed7.557 km/s
True Right ascension21h 45m 21s
True Declination0° 00' 00"
Sunlit
Object was in daylight at TLE epoch
Visualization TLE readout
Latitude62.56935°
Longitude-108.46039°
Altitude1,069.89 km
Speed7.338 km/s
Apparent Right ascension05h 26m 58s
Apparent Declination16° 59' 23"
Sunlit
Object is in full shadow
Visualization observer readout
Local Sidereal Time17:56:43
Azimuth8.459° NNE
Elevation-32.673°
Doppler factor1
Orbital elements
Apogee altitude1,344.138 km
Perigee altitude832.315 km
Semi-major axis7,466.364 km
Eccentricity0.0342753
Inclination63.3851°
RAAN326.3398°
Arg. of periapsis11.9694°
True anomaly348.1345°
Mean anomaly348.9222°
Eccentric anomaly348.53174°
Mean motion3.36418 °/min
BSTAR0.00027459
Orbital period107.01 mins
Loading maneuver chart data...
Loading historical data...
Loading historical data...
Loading historical data...
Loading historical data...
Loading historical data...
Loading historical data...
Loading historical data...

YAOGAN 20B Visibility forecast

Observer location: undefined°, undefined

Span
Click to sort rows by Start time (UTC) header in descending order
Start Az.
Max El. time (UTC)
Max El. Az.
Max El.
End time (UTC)
End Az.
10 mins2024-12-26 23:35:12.572Z203.673° SW2024-12-26 23:40:12.572Z114.294° SE43.752°2024-12-26 23:45:12.572Z38.363° NE
7 mins2024-12-27 01:28:12.572Z283.707° WNW2024-12-27 01:31:12.572Z321.832° NNW20.878°2024-12-27 01:35:12.572Z7.807° NNE
11 mins2024-12-27 07:07:12.572Z350.664° N2024-12-27 07:11:12.572Z37.689° NE29.781°2024-12-27 07:18:12.572Z106.826° ESE
13 mins2024-12-27 08:57:12.572Z314.745° NW2024-12-27 09:02:12.572Z253.998° W40.648°2024-12-27 09:10:12.572Z165.232° S
|